FW4820 Weather Reports


time (UTC)temp
C
wind
direction
speed
KPH
gust
KPH
rain 1hr
cm
rain 24hr
cm
rain mn
cm
humidity
%
barometer
mb
20260505125015 8 68 4.8 11.3 0.30 0.76 0.74 87 1012.2
20260505124015 8 248 4.8 6.4 0.30 0.76 0.74 86 1013.3
20260505123035 8 0.0 0.0 0.28 0.74 0.71 82 1011.7
20260505122016 10 315 3.2 8.0 0.25 0.71 0.69 77 1011.4
20260505121055 10 248 4.8 11.3 0.00 0.46 0.43 71 1012.5
20260505120015 10 45 6.4 12.9 0.03 0.46 0.43 69 1010.2
20260505115035 10 68 12.9 19.3 0.03 0.46 0.43 67 1010.0
20260505114015 10 45 8.0 17.7 0.03 0.46 0.43 67 1010.3
20260505113015 10 45 4.8 11.3 0.03 0.46 0.43 67 1010.2
20260505112015 11 0 3.2 6.4 0.03 0.46 0.43 64 1011.0
20260505111015 11 23 4.8 9.7 0.03 0.46 0.43 62 1010.4
20260505102017 12 45 6.4 19.3 0.00 0.43 0.41 59 1009.8
20260505101015 12 45 6.4 14.5 0.00 0.43 0.41 58 1009.6
20260505100015 12 45 8.0 12.9 0.00 0.43 0.41 58 1010.1
20260505095015 12 23 11.3 22.5 0.00 0.43 0.41 58 1009.7
20260505094015 12 45 9.7 20.9 0.00 0.43 0.41 59 1009.8
20260505093015 12 45 6.4 14.5 0.00 0.43 0.41 60 1010.2
20260505092015 12 23 6.4 19.3 0.00 0.43 0.41 59 1009.9
20260505091015 12 45 4.8 11.3 0.00 0.43 0.41 60 1010.0
20260505090036 12 23 8.0 17.7 0.00 0.43 0.41 59 1009.5
20260505085017 12 0 11.3 25.7 0.00 0.43 0.41 58 1009.8
20260505084015 12 23 8.0 16.1 0.00 0.43 0.41 62 1009.6
20260505083017 12 23 6.4 19.3 0.00 0.43 0.41 63 1009.1
20260505082015 12 0 4.8 12.9 0.00 0.43 0.41 64 1009.0
20260505081017 12 45 6.4 17.7 0.00 0.43 0.41 65 1008.5
20260505080037 11 23 8.0 17.7 0.00 0.43 0.41 67 1008.0
20260505075017 11 23 8.0 16.1 0.03 0.43 0.41 72 1008.0
20260505074017 11 0 6.4 17.7 0.10 0.43 0.41 75 1008.0
20260505073037 10 23 8.0 16.1 0.18 0.43 0.41 80 1007.6
20260505072037 10 45 8.0 17.7 0.36 0.43 0.41 83 1007.8
20260505071017 10 45 3.2 8.0 0.41 0.43 0.41 84 1009.1
20260505070017 11 315 3.2 6.4 0.41 0.43 0.41 82 1009.8
20260505065017 11 45 6.4 14.5 0.38 0.41 0.38 78 1009.5
20260505064017 12 23 6.4 14.5 0.30 0.33 0.30 75 1009.3
20260505063017 12 45 11.3 19.3 0.23 0.25 0.23 71 1009.4
20260505062017 15 315 6.4 16.1 0.05 0.08 0.05 62 1010.2
20260505061037 16 23 8.0 16.1 0.00 0.03 0.00 51 1008.7
20260505060017 16 23 12.9 27.4 0.00 0.03 0.00 49 1007.7
20260505055017 17 23 14.5 24.1 0.00 0.03 0.00 48 1007.4
20260505054017 17 23 11.3 22.5 0.03 0.03 0.00 48 1007.4
20260505053017 17 23 14.5 33.8 0.03 0.03 0.00 48 1007.0
20260505052057 17 23 9.7 16.1 0.03 0.03 0.00 51 1007.0
20260505051017 18 23 14.5 27.4 0.03 0.03 0.00 50 1006.3
20260505041036 21 23 11.3 20.9 0.00 0.00 0.00 46 1005.3
20260505040016 21 23 8.0 17.7 0.00 0.00 0.00 49 1005.3
20260505035016 21 23 9.7 24.1 0.00 0.00 0.00 51 1005.5
20260505034016 21 23 6.4 16.1 0.00 0.00 0.00 61 1005.2
20260505033016 20 338 4.8 11.3 0.00 0.00 0.00 73 1005.0
20260505032036 18 0.0 0.0 0.00 0.00 0.00 80 1004.2
20260505031016 18 0.0 0.0 0.00 0.00 0.00 81 1004.1
20260505030016 18 0.0 0.0 0.00 0.00 0.00 80 1004.0
20260505025016 18 0.0 0.0 0.00 0.00 0.00 79 1004.0
20260505024016 18 0.0 0.0 0.00 0.00 0.00 79 1003.7
20260505023036 18 0.0 0.0 0.00 0.00 0.00 78 1003.5
20260505022036 18 0.0 0.0 0.00 0.00 0.00 80 1003.5
20260505021016 18 0.0 0.0 0.00 0.00 0.00 78 1003.3
20260505020016 19 0.0 0.0 0.00 0.00 0.00 77 1003.2
20260505015016 19 0.0 0.0 0.00 0.00 0.00 75 1003.1
20260505014016 19 0.0 0.0 0.00 0.00 0.00 74 1002.8
20260505013016 20 0.0 0.0 0.00 0.00 0.00 73 1002.8
20260505012016 21 0.0 0.0 0.00 0.00 0.00 71 1002.8
20260505011016 21 0.0 0.0 0.00 0.00 0.00 70 1002.6
20260505010016 22 0.0 0.0 0.00 0.00 0.00 67 1002.5
20260505005016 22 0.0 0.0 0.00 0.00 0.00 65 1002.5
20260505004016 23 0.0 0.0 0.00 0.00 0.00 64 1002.4
20260505003016 23 0.0 0.0 0.00 0.00 0.00 61 1002.4
20260505002016 24 0.0 0.0 0.00 0.00 0.00 61 1002.4
20260505001016 25 0.0 0.0 0.00 0.00 0.00 62 1002.6
20260505000016 25 0.0 0.0 0.00 0.00 0.00 58 1002.6
20260504235036 25 0.0 0.0 0.00 0.00 0.00 61 1002.6
20260504234016 26 0.0 1.6 0.00 0.00 0.00 57 1002.6
20260504233015 26 0.0 1.6 0.00 0.00 0.00 56 1002.6
20260504232015 26 0.0 3.2 0.00 0.00 0.00 57 1002.6
20260504231037 26 248 1.6 3.2 0.00 0.00 0.00 55 1002.6
20260504230016 26 0.0 3.2 0.00 0.00 0.00 54 1002.7
20260504225016 27 0.0 1.6 0.00 0.00 0.00 51 1002.5
20260504224015 27 203 1.6 8.0 0.00 0.00 0.00 51 1002.5
20260504223035 27 0.0 3.2 0.00 0.00 0.00 51 1002.7
20260504222016 28 0.0 3.2 0.00 0.00 0.00 49 1002.7
20260504221016 28 0.0 3.2 0.00 0.00 0.00 49 1002.6
20260504220015 28 225 1.6 8.0 0.00 0.00 0.00 50 1002.8
20260504215015 28 225 1.6 9.7 0.00 0.00 0.00 47 1002.7
20260504214016 29 248 1.6 4.8 0.00 0.00 0.00 44 1002.8
20260504213016 28 225 1.6 6.4 0.00 0.00 0.00 46 1003.1
20260504212015 28 225 6.4 14.5 0.00 0.00 0.00 40 1003.0
20260504211016 28 248 4.8 9.7 0.00 0.00 0.00 41 1003.4
20260504210015 28 203 3.2 11.3 0.00 0.00 0.00 45 1003.4
20260504205015 28 203 1.6 8.0 0.00 0.00 0.00 48 1003.6
20260504204017 28 248 1.6 6.4 0.00 0.00 0.00 46 1003.8
20260504203015 28 225 3.2 8.0 0.00 0.00 0.00 45 1003.8
20260504202015 28 225 3.2 11.3 0.00 0.00 0.00 47 1003.8
20260504201015 27 158 1.6 8.0 0.00 0.00 0.00 46 1003.9
20260504200035 28 248 3.2 11.3 0.00 0.00 0.00 48 1004.0
20260504195016 28 225 3.2 8.0 0.00 0.00 0.00 46 1004.0
20260504194016 28 248 3.2 12.9 0.00 0.00 0.00 38 1003.9
20260504193015 28 225 1.6 8.0 0.00 0.00 0.00 42 1003.9
20260504192015 28 225 3.2 11.3 0.00 0.00 0.00 44 1004.0
20260504191015 28 203 3.2 11.3 0.00 0.00 0.00 47 1004.0
20260504190016 28 158 3.2 8.0 0.00 0.00 0.00 48 1004.1
20260504185015 27 248 6.4 11.3 0.00 0.00 0.00 45 1004.0
20260504184015 27 225 4.8 12.9 0.00 0.00 0.00 47 1003.9
20260504183015 27 225 4.8 11.3 0.00 0.00 0.00 51 1003.9
20260504182035 27 203 4.8 9.7 0.00 0.00 0.00 50 1004.0
20260504181015 27 225 4.8 11.3 0.00 0.00 0.00 49 1004.1
20260504180015 26 225 4.8 14.5 0.00 0.00 0.00 48 1004.1
20260504175035 26 203 4.8 14.5 0.00 0.00 0.00 51 1004.2
20260504174015 26 203 4.8 9.7 0.00 0.00 0.00 54 1004.2
20260504173015 26 225 8.0 12.9 0.00 0.00 0.00 50 1004.3
20260504172035 25 248 8.0 17.7 0.00 0.00 0.00 51 1004.5
20260504171015 25 225 6.4 17.7 0.00 0.00 0.00 51 1004.5
20260504151037 22 225 8.0 16.1 0.00 0.00 0.00 58 1004.6
20260504141017 21 203 3.2 8.0 0.00 0.00 0.00 64 1004.8